date,time,water_lv
2013-09-01,00:00:00,142.75
2013-09-01,00:10:00,142.76
2013-09-01,00:20:00,142.77
2013-09-01,00:30:00,142.78
2013-09-01,00:40:00,142.8
2013-09-01,00:50:00,142.8
2013-09-01,01:00:00,142.81
2013-09-01,01:10:00,142.82
2013-09-01,01:20:00,142.83
2013-09-01,01:30:00,142.84
2013-09-01,01:40:00,142.84
2013-09-01,01:50:00,142.86
2013-09-01,02:00:00,142.86
2013-09-01,02:10:00,142.87
2013-09-01,02:20:00,142.87
2013-09-01,02:30:00,142.88
2013-09-01,02:40:00,142.88
2013-09-01,02:50:00,142.89
2013-09-01,03:00:00,142.89
2013-09-01,03:10:00,142.89
2013-09-01,03:20:00,142.9
2013-09-01,03:30:00,142.9
2013-09-01,03:40:00,142.9
2013-09-01,03:50:00,142.9
2013-09-01,04:00:00,142.91
2013-09-01,04:10:00,142.91
2013-09-01,04:20:00,142.91
2013-09-01,04:30:00,142.91
2013-09-01,04:40:00,142.9
2013-09-01,04:50:00,142.91
2013-09-01,05:00:00,142.9
2013-09-01,05:10:00,142.91
2013-09-01,05:20:00,142.9
2013-09-01,05:30:00,142.9
2013-09-01,05:40:00,142.9
2013-09-01,05:50:00,142.89
2013-09-01,06:00:00,142.89
2013-09-01,06:10:00,142.88
2013-09-01,06:20:00,142.88
2013-09-01,06:30:00,142.87
2013-09-01,06:40:00,142.87
2013-09-01,06:50:00,142.87
2013-09-01,07:00:00,142.86
2013-09-01,07:10:00,142.85
2013-09-01,07:20:00,142.84
2013-09-01,07:30:00,142.84
2013-09-01,07:40:00,142.83
2013-09-01,07:50:00,142.83
2013-09-01,08:00:00,142.82
2013-09-01,08:10:00,142.81
2013-09-01,08:20:00,142.8
2013-09-01,08:30:00,142.8
2013-09-01,08:40:00,142.79
2013-09-01,08:50:00,142.78
2013-09-01,09:00:00,142.77
2013-09-01,09:10:00,142.76
2013-09-01,09:20:00,142.75
2013-09-01,09:30:00,142.74
2013-09-01,09:40:00,142.73
2013-09-01,09:50:00,142.72
2013-09-01,10:00:00,142.71
2013-09-01,10:10:00,142.7
2013-09-01,10:20:00,142.68
2013-09-01,10:30:00,142.68
2013-09-01,10:40:00,142.67
2013-09-01,10:50:00,142.66
2013-09-01,11:00:00,142.65
2013-09-01,11:10:00,142.64
2013-09-01,11:20:00,142.63
2013-09-01,11:30:00,142.62
2013-09-01,11:40:00,142.61
2013-09-01,11:50:00,142.6
2013-09-01,12:00:00,142.58
2013-09-01,12:10:00,142.57
2013-09-01,12:20:00,142.56
2013-09-01,12:30:00,142.54
2013-09-01,12:40:00,142.53
2013-09-01,12:50:00,142.52
2013-09-01,13:00:00,142.51
2013-09-01,13:10:00,142.49
2013-09-01,13:20:00,142.47
2013-09-01,13:30:00,142.47
2013-09-01,13:40:00,142.45
2013-09-01,13:50:00,142.44
2013-09-01,14:00:00,142.43
2013-09-01,14:10:00,142.42
2013-09-01,14:20:00,142.41
2013-09-01,14:30:00,142.4
2013-09-01,14:40:00,142.38
2013-09-01,14:50:00,142.37
2013-09-01,15:00:00,142.36
2013-09-01,15:10:00,142.34
2013-09-01,15:20:00,142.33
2013-09-01,15:30:00,142.32
2013-09-01,15:40:00,142.3
2013-09-01,15:50:00,142.29
2013-09-01,16:00:00,142.28
2013-09-01,16:10:00,142.27
2013-09-01,16:20:00,142.25
2013-09-01,16:30:00,142.24
2013-09-01,16:40:00,142.23
2013-09-01,16:50:00,142.21
2013-09-01,17:00:00,142.2
2013-09-01,17:10:00,142.19
2013-09-01,17:20:00,142.17
2013-09-01,17:30:00,142.16
2013-09-01,17:40:00,142.15
2013-09-01,17:50:00,142.14
2013-09-01,18:00:00,142.12
2013-09-01,18:10:00,142.11
2013-09-01,18:20:00,142.1
2013-09-01,18:30:00,142.08
2013-09-01,18:40:00,142.07
2013-09-01,18:50:00,142.06
2013-09-01,19:00:00,142.05
2013-09-01,19:10:00,142.03
2013-09-01,19:20:00,142.02
2013-09-01,19:30:00,142.01
2013-09-01,19:40:00,142
2013-09-01,19:50:00,141.98
2013-09-01,20:00:00,141.97
2013-09-01,20:10:00,141.96
2013-09-01,20:20:00,141.94
2013-09-01,20:30:00,141.93
2013-09-01,20:40:00,141.92
2013-09-01,20:50:00,141.9
2013-09-01,21:00:00,141.89
2013-09-01,21:10:00,141.88
2013-09-01,21:20:00,141.87
2013-09-01,21:30:00,141.85
2013-09-01,21:40:00,141.84
2013-09-01,21:50:00,141.83
2013-09-01,22:00:00,141.81
2013-09-01,22:10:00,141.8
2013-09-01,22:20:00,141.79
2013-09-01,22:30:00,141.77
2013-09-01,22:40:00,141.76
2013-09-01,22:50:00,141.75
2013-09-01,23:00:00,141.73
2013-09-01,23:10:00,141.72
2013-09-01,23:20:00,141.71
2013-09-01,23:30:00,141.7
2013-09-01,23:40:00,141.68
2013-09-01,23:50:00,141.67
2013-09-02,00:00:00,141.66
2013-09-02,00:10:00,141.65
2013-09-02,00:20:00,141.63
2013-09-02,00:30:00,141.62
2013-09-02,00:40:00,141.61
2013-09-02,00:50:00,141.59
2013-09-02,01:00:00,141.58
2013-09-02,01:10:00,141.57
2013-09-02,01:20:00,141.56
2013-09-02,01:30:00,141.54
2013-09-02,01:40:00,141.53
2013-09-02,01:50:00,141.52
2013-09-02,02:00:00,141.51
2013-09-02,02:10:00,141.5
2013-09-02,02:20:00,141.48
2013-09-02,02:30:00,141.47
2013-09-02,02:40:00,141.46
2013-09-02,02:50:00,141.45
2013-09-02,03:00:00,141.44
2013-09-02,03:10:00,141.42
2013-09-02,03:20:00,141.41
2013-09-02,03:30:00,141.4
2013-09-02,03:40:00,141.39
2013-09-02,03:50:00,141.37
2013-09-02,04:00:00,141.36
2013-09-02,04:10:00,141.35
2013-09-02,04:20:00,141.34
2013-09-02,04:30:00,141.33
2013-09-02,04:40:00,141.32
2013-09-02,04:50:00,141.31
2013-09-02,05:00:00,141.3
2013-09-02,05:10:00,141.29
2013-09-02,05:20:00,141.27
2013-09-02,05:30:00,141.26
2013-09-02,05:40:00,141.25
2013-09-02,05:50:00,141.24
2013-09-02,06:00:00,141.23
2013-09-02,06:10:00,141.22
2013-09-02,06:20:00,141.21
2013-09-02,06:30:00,141.2
2013-09-02,06:40:00,141.19
2013-09-02,06:50:00,141.18
2013-09-02,07:00:00,141.18
2013-09-02,07:10:00,141.16
2013-09-02,07:20:00,141.15
2013-09-02,07:30:00,141.14
2013-09-02,07:40:00,141.14
2013-09-02,07:50:00,141.12
2013-09-02,08:00:00,141.12
2013-09-02,08:10:00,141.11
2013-09-02,08:20:00,141.1
2013-09-02,08:30:00,141.09
2013-09-02,08:40:00,141.08
2013-09-02,08:50:00,141.07
2013-09-02,09:00:00,141.06
2013-09-02,09:10:00,141.05
2013-09-02,09:20:00,141.05
2013-09-02,09:30:00,141.04
2013-09-02,09:40:00,141.03
2013-09-02,09:50:00,141.02
2013-09-02,10:00:00,141.01
2013-09-02,10:10:00,141
2013-09-02,10:20:00,140.99
2013-09-02,10:30:00,140.98
2013-09-02,10:40:00,140.97
2013-09-02,10:50:00,140.97
2013-09-02,11:00:00,140.96
2013-09-02,11:10:00,140.95
2013-09-02,11:20:00,140.94
2013-09-02,11:30:00,140.93
2013-09-02,11:40:00,140.92
2013-09-02,11:50:00,140.92
2013-09-02,12:00:00,140.91
2013-09-02,12:10:00,140.9
2013-09-02,12:20:00,140.89
2013-09-02,12:30:00,140.89
2013-09-02,12:40:00,140.88
2013-09-02,12:50:00,140.87
2013-09-02,13:00:00,140.86
2013-09-02,13:10:00,140.85
2013-09-02,13:20:00,140.84
2013-09-02,13:30:00,140.84
2013-09-02,13:40:00,140.83
2013-09-02,13:50:00,140.82
2013-09-02,14:00:00,140.81
2013-09-02,14:10:00,140.8
2013-09-02,14:20:00,140.79
2013-09-02,14:30:00,140.78
2013-09-02,14:40:00,140.77
2013-09-02,14:50:00,140.76
2013-09-02,15:00:00,140.75
2013-09-02,15:10:00,140.75
2013-09-02,15:20:00,140.73
2013-09-02,15:30:00,140.73
2013-09-02,15:40:00,140.72
2013-09-02,15:50:00,140.71
2013-09-02,16:00:00,140.7
2013-09-02,16:10:00,140.69
2013-09-02,16:20:00,140.68
2013-09-02,16:30:00,140.67
2013-09-02,16:40:00,140.66
2013-09-02,16:50:00,140.65
2013-09-02,17:00:00,140.64
2013-09-02,17:10:00,140.63
2013-09-02,17:20:00,140.62
2013-09-02,17:30:00,140.61
2013-09-02,17:40:00,140.6
2013-09-02,17:50:00,140.59
2013-09-02,18:00:00,140.58
2013-09-02,18:10:00,140.57
2013-09-02,18:20:00,140.57
2013-09-02,18:30:00,140.56
2013-09-02,18:40:00,140.55
2013-09-02,18:50:00,140.54
2013-09-02,19:00:00,140.53
2013-09-02,19:10:00,140.52
2013-09-02,19:20:00,140.51
2013-09-02,19:30:00,140.5
2013-09-02,19:40:00,140.49
2013-09-02,19:50:00,140.48
2013-09-02,20:00:00,140.47
2013-09-02,20:10:00,140.47
2013-09-02,20:20:00,140.46
2013-09-02,20:30:00,140.45
2013-09-02,20:40:00,140.44
2013-09-02,20:50:00,140.43
2013-09-02,21:00:00,140.42
2013-09-02,21:10:00,140.41
2013-09-02,21:20:00,140.4
2013-09-02,21:30:00,140.39
2013-09-02,21:40:00,140.39
2013-09-02,21:50:00,140.38
2013-09-02,22:00:00,140.37
2013-09-02,22:10:00,140.36
2013-09-02,22:20:00,140.35
2013-09-02,22:30:00,140.34
2013-09-02,22:40:00,140.34
2013-09-02,22:50:00,140.33
2013-09-02,23:00:00,140.32
2013-09-02,23:10:00,140.31
2013-09-02,23:20:00,140.3
2013-09-02,23:30:00,140.29
2013-09-02,23:40:00,140.29
2013-09-02,23:50:00,140.28
2013-09-03,00:00:00,140.27
2013-09-03,00:10:00,140.26
2013-09-03,00:20:00,140.25
2013-09-03,00:30:00,140.25
2013-09-03,00:40:00,140.24
2013-09-03,00:50:00,140.23
2013-09-03,01:00:00,140.22
2013-09-03,01:10:00,140.22
2013-09-03,01:20:00,140.21
2013-09-03,01:30:00,140.2
2013-09-03,01:40:00,140.2
2013-09-03,01:50:00,140.19
2013-09-03,02:00:00,140.18
2013-09-03,02:10:00,140.17
2013-09-03,02:20:00,140.17
2013-09-03,02:30:00,140.16
2013-09-03,02:40:00,140.15
2013-09-03,02:50:00,140.15
2013-09-03,03:00:00,140.14
2013-09-03,03:10:00,140.13
2013-09-03,03:20:00,140.12
2013-09-03,03:30:00,140.12
2013-09-03,03:40:00,140.11
2013-09-03,03:50:00,140.11
2013-09-03,04:00:00,140.1
2013-09-03,04:10:00,140.09
2013-09-03,04:20:00,140.09
2013-09-03,04:30:00,140.08
2013-09-03,04:40:00,140.07
2013-09-03,04:50:00,140.07
2013-09-03,05:00:00,140.06
2013-09-03,05:10:00,140.06
2013-09-03,05:20:00,140.05
2013-09-03,05:30:00,140.05
2013-09-03,05:40:00,140.04
2013-09-03,05:50:00,140.03
2013-09-03,06:00:00,140.03
2013-09-03,06:10:00,140.02
2013-09-03,06:20:00,140.02
2013-09-03,06:30:00,140.01
2013-09-03,06:40:00,140.01
2013-09-03,06:50:00,140
2013-09-03,07:00:00,140
2013-09-03,07:10:00,139.99
2013-09-03,07:20:00,139.99
2013-09-03,07:30:00,139.98
2013-09-03,07:40:00,139.98
2013-09-03,07:50:00,139.96
2013-09-03,08:00:00,139.97
2013-09-03,08:10:00,139.96
2013-09-03,08:20:00,139.96
2013-09-03,08:30:00,139.95
2013-09-03,08:40:00,139.94
2013-09-03,08:50:00,139.94
2013-09-03,09:00:00,139.94
2013-09-03,09:10:00,139.93
2013-09-03,09:20:00,139.93
2013-09-03,09:30:00,139.93
2013-09-03,09:40:00,139.92
2013-09-03,09:50:00,139.92
2013-09-03,10:00:00,139.91
2013-09-03,10:10:00,139.91
2013-09-03,10:20:00,139.9
2013-09-03,10:30:00,139.9
2013-09-03,10:40:00,139.9
2013-09-03,10:50:00,139.89
2013-09-03,11:00:00,139.89
2013-09-03,11:10:00,139.88
2013-09-03,11:20:00,139.88
2013-09-03,11:30:00,139.88
2013-09-03,11:40:00,139.87
2013-09-03,11:50:00,139.87
2013-09-03,12:00:00,139.86
2013-09-03,12:10:00,139.86
2013-09-03,12:20:00,139.85
2013-09-03,12:30:00,139.85
2013-09-03,12:40:00,139.84
2013-09-03,12:50:00,139.83
2013-09-03,13:00:00,139.83
2013-09-03,13:10:00,139.82
2013-09-03,13:20:00,139.83
2013-09-03,13:30:00,139.81
2013-09-03,13:40:00,139.82
2013-09-03,13:50:00,139.81
2013-09-03,14:00:00,139.8
2013-09-03,14:10:00,139.8
2013-09-03,14:20:00,139.77
2013-09-03,14:30:00,139.78
2013-09-03,14:40:00,139.78
2013-09-03,14:50:00,139.78
2013-09-03,15:00:00,139.77
2013-09-03,15:10:00,139.77
2013-09-03,15:20:00,139.78
2013-09-03,15:30:00,139.77
2013-09-03,15:40:00,139.77
2013-09-03,15:50:00,139.77
2013-09-03,16:00:00,139.76
2013-09-03,16:10:00,139.76
2013-09-03,16:20:00,139.75
2013-09-03,16:30:00,139.75
2013-09-03,16:40:00,139.75
2013-09-03,16:50:00,139.74
2013-09-03,17:00:00,139.74
2013-09-03,17:10:00,139.73
2013-09-03,17:20:00,139.73
2013-09-03,17:30:00,139.73
2013-09-03,17:40:00,139.72
2013-09-03,17:50:00,139.72
2013-09-03,18:00:00,139.71
2013-09-03,18:10:00,139.71
2013-09-03,18:20:00,139.71
2013-09-03,18:30:00,139.7
2013-09-03,18:40:00,139.7
2013-09-03,18:50:00,139.7
2013-09-03,19:00:00,139.69
2013-09-03,19:10:00,139.69
2013-09-03,19:20:00,139.68
2013-09-03,19:30:00,139.68
2013-09-03,19:40:00,139.67
2013-09-03,19:50:00,139.67
2013-09-03,20:00:00,139.67
2013-09-03,20:10:00,139.66
2013-09-03,20:20:00,139.66
2013-09-03,20:30:00,139.65
2013-09-03,20:40:00,139.63
2013-09-03,20:50:00,139.63
2013-09-03,21:00:00,139.61
2013-09-03,21:10:00,139.63
2013-09-03,21:20:00,139.63
2013-09-03,21:30:00,139.63
2013-09-03,21:40:00,139.63
2013-09-03,21:50:00,139.62
2013-09-03,22:00:00,139.62
2013-09-03,22:10:00,139.62
2013-09-03,22:20:00,139.61
2013-09-03,22:30:00,139.61
2013-09-03,22:40:00,139.61
2013-09-03,22:50:00,139.6
2013-09-03,23:00:00,139.6
2013-09-03,23:10:00,139.59
2013-09-03,23:20:00,139.59
2013-09-03,23:30:00,139.59
2013-09-03,23:40:00,139.58
2013-09-03,23:50:00,139.58
2013-09-04,00:00:00,139.58
2013-09-04,00:10:00,139.57
2013-09-04,00:20:00,139.57
2013-09-04,00:30:00,139.56
2013-09-04,00:40:00,139.56
2013-09-04,00:50:00,139.56
2013-09-04,01:00:00,139.55
2013-09-04,01:10:00,139.55
2013-09-04,01:20:00,139.55
2013-09-04,01:30:00,139.54
2013-09-04,01:40:00,139.54
2013-09-04,01:50:00,139.54
2013-09-04,02:00:00,139.53
2013-09-04,02:10:00,139.53
2013-09-04,02:20:00,139.52
2013-09-04,02:30:00,139.52
2013-09-04,02:40:00,139.52
2013-09-04,02:50:00,139.51
2013-09-04,03:00:00,139.51
2013-09-04,03:10:00,139.51
2013-09-04,03:20:00,139.5
2013-09-04,03:30:00,139.5
2013-09-04,03:40:00,139.5
2013-09-04,03:50:00,139.49
2013-09-04,04:00:00,139.49
2013-09-04,04:10:00,139.49
2013-09-04,04:20:00,139.49
2013-09-04,04:30:00,139.49
2013-09-04,04:40:00,139.48
2013-09-04,04:50:00,139.48
2013-09-04,05:00:00,139.48
2013-09-04,05:10:00,139.48
2013-09-04,05:20:00,139.48
2013-09-04,05:30:00,139.48
2013-09-04,05:40:00,139.47
2013-09-04,05:50:00,139.47
2013-09-04,06:00:00,139.47
2013-09-04,06:10:00,139.47
2013-09-04,06:20:00,139.47
2013-09-04,06:30:00,139.46
2013-09-04,06:40:00,139.46
2013-09-04,06:50:00,139.46
2013-09-04,07:00:00,139.46
2013-09-04,07:10:00,139.45
2013-09-04,07:20:00,139.45
2013-09-04,07:30:00,139.45
2013-09-04,07:40:00,139.44
2013-09-04,07:50:00,139.43
2013-09-04,08:00:00,139.43
2013-09-04,08:10:00,139.43
2013-09-04,08:20:00,139.43
2013-09-04,08:30:00,139.43
2013-09-04,08:40:00,139.42
2013-09-04,08:50:00,139.42
2013-09-04,09:00:00,139.41
2013-09-04,09:10:00,139.41
2013-09-04,09:20:00,139.4
2013-09-04,09:30:00,139.4
2013-09-04,09:40:00,139.4
2013-09-04,09:50:00,139.39
2013-09-04,10:00:00,139.39
2013-09-04,10:10:00,139.39
2013-09-04,10:20:00,139.38
2013-09-04,10:30:00,139.38
2013-09-04,10:40:00,139.38
2013-09-04,10:50:00,139.37
2013-09-04,11:00:00,139.37
2013-09-04,11:10:00,139.37
2013-09-04,11:20:00,139.36
2013-09-04,11:30:00,139.36
2013-09-04,11:40:00,139.36
2013-09-04,11:50:00,139.36
2013-09-04,12:00:00,139.35
2013-09-04,12:10:00,139.34
2013-09-04,12:20:00,139.35
2013-09-04,12:30:00,139.34
2013-09-04,12:40:00,139.34
2013-09-04,12:50:00,139.34
2013-09-04,13:00:00,139.33
2013-09-04,13:10:00,139.33
2013-09-04,13:20:00,139.33
2013-09-04,13:30:00,139.33
2013-09-04,13:40:00,139.33
2013-09-04,13:50:00,139.32
2013-09-04,14:00:00,139.31
2013-09-04,14:10:00,139.31
2013-09-04,14:20:00,139.32
2013-09-04,14:30:00,139.31
2013-09-04,14:40:00,139.31
2013-09-04,14:50:00,139.31
2013-09-04,15:00:00,139.31
2013-09-04,15:10:00,139.3
2013-09-04,15:20:00,139.3
2013-09-04,15:30:00,139.3
2013-09-04,15:40:00,139.3
2013-09-04,15:50:00,139.3
2013-09-04,16:00:00,139.29
2013-09-04,16:10:00,139.29
2013-09-04,16:20:00,139.29
2013-09-04,16:30:00,139.28
2013-09-04,16:40:00,139.28
2013-09-04,16:50:00,139.28
2013-09-04,17:00:00,139.28
2013-09-04,17:10:00,139.28
2013-09-04,17:20:00,139.28
2013-09-04,17:30:00,139.28
2013-09-04,17:40:00,139.27
2013-09-04,17:50:00,139.27
2013-09-04,18:00:00,139.27
2013-09-04,18:10:00,139.27
2013-09-04,18:20:00,139.26
2013-09-04,18:30:00,139.26
2013-09-04,18:40:00,139.26
2013-09-04,18:50:00,139.26
2013-09-04,19:00:00,139.26
2013-09-04,19:10:00,139.25
2013-09-04,19:20:00,139.25
2013-09-04,19:30:00,139.25
2013-09-04,19:40:00,139.25
2013-09-04,19:50:00,139.25
2013-09-04,20:00:00,139.25
2013-09-04,20:10:00,139.25
2013-09-04,20:20:00,139.24
2013-09-04,20:30:00,139.24
2013-09-04,20:40:00,139.24
2013-09-04,20:50:00,139.24
2013-09-04,21:00:00,139.24
2013-09-04,21:10:00,139.24
2013-09-04,21:20:00,139.23
2013-09-04,21:30:00,139.23
2013-09-04,21:40:00,139.23
2013-09-04,21:50:00,139.23
2013-09-04,22:00:00,139.23
2013-09-04,22:10:00,139.23
2013-09-04,22:20:00,139.22
2013-09-04,22:30:00,139.22
2013-09-04,22:40:00,139.22
2013-09-04,22:50:00,139.22
2013-09-04,23:00:00,139.22
2013-09-04,23:10:00,139.21
2013-09-04,23:20:00,139.21
2013-09-04,23:30:00,139.21
2013-09-04,23:40:00,139.21
2013-09-04,23:50:00,139.21
2013-09-05,00:00:00,139.21
2013-09-05,00:10:00,139.2
2013-09-05,00:20:00,139.2
2013-09-05,00:30:00,139.2
2013-09-05,00:40:00,139.2
2013-09-05,00:50:00,139.19
2013-09-05,01:00:00,139.19
2013-09-05,01:10:00,139.19
2013-09-05,01:20:00,139.19
2013-09-05,01:30:00,139.19
2013-09-05,01:40:00,139.19
2013-09-05,01:50:00,139.18
2013-09-05,02:00:00,139.18
2013-09-05,02:10:00,139.18
2013-09-05,02:20:00,139.18
2013-09-05,02:30:00,139.18
2013-09-05,02:40:00,139.18
2013-09-05,02:50:00,139.17
2013-09-05,03:00:00,139.17
2013-09-05,03:10:00,139.17
2013-09-05,03:20:00,139.17
2013-09-05,03:30:00,139.17
2013-09-05,03:40:00,139.17
2013-09-05,03:50:00,139.16
2013-09-05,04:00:00,139.16
2013-09-05,04:10:00,139.16
2013-09-05,04:20:00,139.16
2013-09-05,04:30:00,139.16
2013-09-05,04:40:00,139.16
2013-09-05,04:50:00,139.16
2013-09-05,05:00:00,139.15
2013-09-05,05:10:00,139.15
2013-09-05,05:20:00,139.15
2013-09-05,05:30:00,139.15
2013-09-05,05:40:00,139.15
2013-09-05,05:50:00,139.14
2013-09-05,06:00:00,139.15
2013-09-05,06:10:00,139.13
2013-09-05,06:20:00,139.14
2013-09-05,06:30:00,139.14
2013-09-05,06:40:00,139.14
2013-09-05,06:50:00,139.14
2013-09-05,07:00:00,139.14
2013-09-05,07:10:00,139.14
2013-09-05,07:20:00,139.14
2013-09-05,07:30:00,139.14
2013-09-05,07:40:00,139.14
2013-09-05,07:50:00,139.13
2013-09-05,08:00:00,139.13
2013-09-05,08:10:00,139.13
2013-09-05,08:20:00,139.13
2013-09-05,08:30:00,139.13
2013-09-05,08:40:00,139.13
2013-09-05,08:50:00,139.13
2013-09-05,09:00:00,139.12
2013-09-05,09:10:00,139.12
2013-09-05,09:20:00,139.12
2013-09-05,09:30:00,139.12
2013-09-05,09:40:00,139.12
2013-09-05,09:50:00,139.12
2013-09-05,10:00:00,139.12
2013-09-05,10:10:00,139.12
2013-09-05,10:20:00,139.12
2013-09-05,10:30:00,139.11
2013-09-05,10:40:00,139.11
2013-09-05,10:50:00,139.11
2013-09-05,11:00:00,139.1
2013-09-05,11:10:00,139.09
2013-09-05,11:20:00,139.09
2013-09-05,11:30:00,139.11
2013-09-05,11:40:00,139.1
2013-09-05,11:50:00,139.1
2013-09-05,12:00:00,139.1
2013-09-05,12:10:00,139.1
2013-09-05,12:20:00,139.1
2013-09-05,12:30:00,139.1
2013-09-05,12:40:00,139.1
2013-09-05,12:50:00,139.1
2013-09-05,13:00:00,139.1
2013-09-05,13:10:00,139.09
2013-09-05,13:20:00,139.09
2013-09-05,13:30:00,139.09
2013-09-05,13:40:00,139.09
2013-09-05,13:50:00,139.09
2013-09-05,14:00:00,139.08
2013-09-05,14:10:00,139.08
2013-09-05,14:20:00,139.09
2013-09-05,14:30:00,139.09
2013-09-05,14:40:00,139.09
2013-09-05,14:50:00,139.09
2013-09-05,15:00:00,139.08
2013-09-05,15:10:00,139.08
2013-09-05,15:20:00,139.07
2013-09-05,15:30:00,139.08
2013-09-05,15:40:00,139.08
2013-09-05,15:50:00,139.08
2013-09-05,16:00:00,139.07
2013-09-05,16:10:00,139.08
2013-09-05,16:20:00,139.08
2013-09-05,16:30:00,139.08
2013-09-05,16:40:00,139.08
2013-09-05,16:50:00,139.08
2013-09-05,17:00:00,139.08
2013-09-05,17:10:00,139.08
2013-09-05,17:20:00,139.08
2013-09-05,17:30:00,139.08
2013-09-05,17:40:00,139.08
2013-09-05,17:50:00,139.08
2013-09-05,18:00:00,139.08
2013-09-05,18:10:00,139.08
2013-09-05,18:20:00,139.08
2013-09-05,18:30:00,139.07
2013-09-05,18:40:00,139.08
2013-09-05,18:50:00,139.07
2013-09-05,19:00:00,139.07
2013-09-05,19:10:00,139.07
2013-09-05,19:20:00,139.07
2013-09-05,19:30:00,139.07
2013-09-05,19:40:00,139.07
2013-09-05,19:50:00,139.07
2013-09-05,20:00:00,139.07
2013-09-05,20:10:00,139.07
2013-09-05,20:20:00,139.07
2013-09-05,20:30:00,139.07
2013-09-05,20:40:00,139.07
2013-09-05,20:50:00,139.07
2013-09-05,21:00:00,139.07
2013-09-05,21:10:00,139.07
2013-09-05,21:20:00,139.06
2013-09-05,21:30:00,139.06
2013-09-05,21:40:00,139.06
2013-09-05,21:50:00,139.06
2013-09-05,22:00:00,139.06
2013-09-05,22:10:00,139.06
2013-09-05,22:20:00,139.06
2013-09-05,22:30:00,139.06
2013-09-05,22:40:00,139.06
2013-09-05,22:50:00,139.06
2013-09-05,23:00:00,139.06
2013-09-05,23:10:00,139.06
2013-09-05,23:20:00,139.06
2013-09-05,23:30:00,139.05
2013-09-05,23:40:00,139.05
2013-09-05,23:50:00,139.05
2013-09-06,00:00:00,139.05
2013-09-06,00:10:00,139.05
2013-09-06,00:20:00,139.05
2013-09-06,00:30:00,139.05
2013-09-06,00:40:00,139.05
2013-09-06,00:50:00,139.05
2013-09-06,01:00:00,139.05
2013-09-06,01:10:00,139.05
2013-09-06,01:20:00,139.05
2013-09-06,01:30:00,139.05
2013-09-06,01:40:00,139.05
2013-09-06,01:50:00,139.05
2013-09-06,02:00:00,139.05
2013-09-06,02:10:00,139.05
2013-09-06,02:20:00,139.05
2013-09-06,02:30:00,139.05
2013-09-06,02:40:00,139.05
2013-09-06,02:50:00,139.05
2013-09-06,03:00:00,139.05
2013-09-06,03:10:00,139.05
2013-09-06,03:20:00,139.05
2013-09-06,03:30:00,139.05
2013-09-06,03:40:00,139.05
2013-09-06,03:50:00,139.04
2013-09-06,04:00:00,139.04
2013-09-06,04:10:00,139.04
2013-09-06,04:20:00,139.04
2013-09-06,04:30:00,139.04
2013-09-06,04:40:00,139.04
2013-09-06,04:50:00,139.04
2013-09-06,05:00:00,139.05
2013-09-06,05:10:00,139.04
2013-09-06,05:20:00,139.04
2013-09-06,05:30:00,139.05
2013-09-06,05:40:00,139.04
2013-09-06,05:50:00,139.04
2013-09-06,06:00:00,139.04
2013-09-06,06:10:00,139.04
2013-09-06,06:20:00,139.04
2013-09-06,06:30:00,139.04
2013-09-06,06:40:00,139.04
2013-09-06,06:50:00,139.04
2013-09-06,07:00:00,139.04
2013-09-06,07:10:00,139.04
2013-09-06,07:20:00,139.04
2013-09-06,07:30:00,139.04
2013-09-06,07:40:00,139.04
2013-09-06,07:50:00,139.04
2013-09-06,08:00:00,139.04
2013-09-06,08:10:00,139.04
2013-09-06,08:20:00,139.04
2013-09-06,08:30:00,139.04
2013-09-06,08:40:00,139.04
2013-09-06,08:50:00,139.03
2013-09-06,09:00:00,139.02
2013-09-06,09:10:00,139.03
2013-09-06,09:20:00,139.03
2013-09-06,09:30:00,139.03
2013-09-06,09:40:00,139.01
2013-09-06,09:50:00,139.03
2013-09-06,10:00:00,139.03
2013-09-06,10:10:00,139.03
2013-09-06,10:20:00,139.02
2013-09-06,10:30:00,139.02
2013-09-06,10:40:00,139.03
2013-09-06,10:50:00,139.02
2013-09-06,11:00:00,139.02
2013-09-06,11:10:00,139.02
2013-09-06,11:20:00,139.03
2013-09-06,11:30:00,139.02
2013-09-06,11:40:00,139.01
2013-09-06,11:50:00,139.01
2013-09-06,12:00:00,139.03
2013-09-06,12:10:00,139.01
2013-09-06,12:20:00,139.01
2013-09-06,12:30:00,139.01
2013-09-06,12:40:00,139.01
2013-09-06,12:50:00,139.02
2013-09-06,13:00:00,139.01
2013-09-06,13:10:00,139.02
2013-09-06,13:20:00,139.02
2013-09-06,13:30:00,139.02
2013-09-06,13:40:00,139.02
2013-09-06,13:50:00,139.02
2013-09-06,14:00:00,139.02
2013-09-06,14:10:00,139.02
2013-09-06,14:20:00,139.02
2013-09-06,14:30:00,139.02
2013-09-06,14:40:00,139.02
2013-09-06,14:50:00,139.02
2013-09-06,15:00:00,139.02
2013-09-06,15:10:00,139.02
2013-09-06,15:20:00,139.02
2013-09-06,15:30:00,139.02
2013-09-06,15:40:00,139.02
2013-09-06,15:50:00,139.02
2013-09-06,16:00:00,139.02
2013-09-06,16:10:00,139.02
2013-09-06,16:20:00,139.02
2013-09-06,16:30:00,139.02
2013-09-06,16:40:00,139.02
2013-09-06,16:50:00,139.02
2013-09-06,17:00:00,139.02
2013-09-06,17:10:00,139.02
2013-09-06,17:20:00,139.02
2013-09-06,17:30:00,139.02
2013-09-06,17:40:00,139.02
2013-09-06,17:50:00,139.02
2013-09-06,18:00:00,139.02
2013-09-06,18:10:00,139.03
2013-09-06,18:20:00,139.03
2013-09-06,18:30:00,139.03
2013-09-06,18:40:00,139.03
2013-09-06,18:50:00,139.03
2013-09-06,19:00:00,139.03
2013-09-06,19:10:00,139.03
2013-09-06,19:20:00,139.03
2013-09-06,19:30:00,139.03
2013-09-06,19:40:00,139.03
2013-09-06,19:50:00,139.03
2013-09-06,20:00:00,139.03
2013-09-06,20:10:00,139.03
2013-09-06,20:20:00,139.03
2013-09-06,20:30:00,139.03
2013-09-06,20:40:00,139.03
2013-09-06,20:50:00,139.03
2013-09-06,21:00:00,139.03
2013-09-06,21:10:00,139.03
2013-09-06,21:20:00,139.03
2013-09-06,21:30:00,139.03
2013-09-06,21:40:00,139.03
2013-09-06,21:50:00,139.03
2013-09-06,22:00:00,139.03
2013-09-06,22:10:00,139.03
2013-09-06,22:20:00,139.03
2013-09-06,22:30:00,139.03
2013-09-06,22:40:00,139.03
2013-09-06,22:50:00,139.03
2013-09-06,23:00:00,139.03
2013-09-06,23:10:00,139.03
2013-09-06,23:20:00,139.03
2013-09-06,23:30:00,139.03
2013-09-06,23:40:00,139.04
2013-09-06,23:50:00,139.04
2013-09-07,00:00:00,139.04
2013-09-07,00:10:00,139.04
2013-09-07,00:20:00,139.04
2013-09-07,00:30:00,139.04
2013-09-07,00:40:00,139.04
2013-09-07,00:50:00,139.04
2013-09-07,01:00:00,139.04
2013-09-07,01:10:00,139.04
2013-09-07,01:20:00,139.04
2013-09-07,01:30:00,139.04
2013-09-07,01:40:00,139.04
2013-09-07,01:50:00,139.04
2013-09-07,02:00:00,139.04
2013-09-07,02:10:00,139.04
2013-09-07,02:20:00,139.04
2013-09-07,02:30:00,139.04
2013-09-07,02:40:00,139.04
2013-09-07,02:50:00,139.04
2013-09-07,03:00:00,139.04
2013-09-07,03:10:00,139.05
2013-09-07,03:20:00,139.05
2013-09-07,03:30:00,139.05
2013-09-07,03:40:00,139.05
2013-09-07,03:50:00,139.05
2013-09-07,04:00:00,139.05
2013-09-07,04:10:00,139.05
2013-09-07,04:20:00,139.05